CZ-6A DEB, 60624

Orbit data source: Space-Track

CZ-6A DEB, 60624 is space debris in LEO originally from a launch on Tue, 06 Aug 2024 UTC launched from the Taiyaun Space Center, China (TSC). Debris objects in space refer to the collection of defunct objects orbiting the Earth. Examples of debris include non-operational satellites, rocket bodies, and fragments generated from explosions, collisions, or faulty payload assembly.

Loading next visibility...
Identifier
60624, 2024-140Z
Orbit
LEO
Country
Flag of CNCN / PRC
Related business
Manufacturer
SAST
Mission
Spacecraft
Bus & Motor
Unknown
Mass
Unknown
Launch date (UTC)
2024-08-06 (1 year ago)
Launch vehicle
Unknown
Launch site
Taiyaun Space Center, China (TSC)
Object type
Payload
Rocket body
Debris
Shape & HBR
Unknown shape, 0.7 m
Radar Cross Section
Large (>1 m²)

Expand to show TLE details & history
Last TLE update: 20 hours ago

TLE from 20 hours ago
0 CZ-6A DEB
1 60624U 24140Z   25312.67227769  .00004272  00000-0  88348-3 0  9997
2 60624  89.0357 298.6245 0112253 294.1116  64.8386 14.56250535 66582
Epoch: 2025-11-08T16:08Z
TLE epoch observation values (Epoch: 2025-11-08T16:08:04.792Z)
Latitude
0.00003°
Longitude
8.506°
Altitude
675.335 km
Speed
7.537 km/s
True Right ascension
19h 54m 29s
True Declination
0° 00' 00"
Sunlit
Object was in daylight at epoch
Visualization orbit readout
Latitude
Unknown
Longitude
Unknown
Altitude
Unknown
Speed
Unknown
Apparent Right ascension
Unknown
Apparent Declination
Unknown
Sunlit
N/A
Visualization observer readout
Local Sidereal Time
08:50:46
Azimuth
Unknown
Elevation
Unknown
Doppler factor
Unknown
Orbital elements
Apogee altitude
781.684 km
Perigee altitude
622.726 km
Semi-major axis
7,080.342 km
Eccentricity
0.01123
Inclination
89.0357°
RAAN
298.6245°
Arg. of periapsis
294.1116°
True anomaly
66.00977°
Mean anomaly
64.8386°
Eccentric anomaly
65.4235°
Mean motion
3.64302 °/min
Orbital period
98.82 mins
BSTAR
0.00088348
Loading maneuver chart data...
Computing Atmospheric mass density...
Loading historical data...
Loading historical data...
Loading historical data...
Loading historical data...
Loading historical data...
Loading historical data...
Loading historical data...

Documentation

Showing up to 5 results
|